Location: Newark
(7.1028°S, 35.3258°W)
Time: 18:40:06
(UTC+00:00)

Vanguard 3 - Pass Details

Date: 21 February 2020
Orbit: 508 x 3263 km, 33.4° (Epoch: 02 April)

Event Time Altitude Azimuth Distance (km) Brightness Sun altitude
Rises 17:35:24 0° 333° (NNW) 5,615 11.6 45.3°
Reaches altitude 10° 17:39:33 10° 344° (NNW) 4,999 11.4 44.3°
Maximum altitude 17:52:24 30° 39° (NE) 4,435 10.8 41.1°
Drops below altitude 10° 18:08:06 10° 91° (E) 6,197 11.2 37.3°
Sets 18:13:56 0° 101° (E) 7,132 11.5 35.9°
